COSMOS 2251 DEB, 37118

Orbit data source: Space-Track

COSMOS 2251 DEB, 37118 is space debris in LEO originally from a launch on Wed, 16 Jun 1993 UTC launched from the Plesetsk Missile And Space Complex (PKMTR). The debris from Iridium 33, an American commercial communications satellite, has been tracked extensively since its accidental collision with the defunct Russian satellite Cosmos 2251 in 2009. This event, occurring at high speed in low Earth orbit (LEO), generated thousands of pieces of space debris, significantly increasing the risk of further collisions. The Iridium 33 debris cloud has impacted space traffic management and orbital debris mitigation strategies, making it a subject of ongoing study in space situational awareness.

Loading next visibility...
Identifier
37118, 1993-036BGQ
Orbit
LEO
Country
Flag of CISCIS
Related business
Manufacturer
Unknown
Mission
Spacecraft
Bus & Motor
Unknown
Mass
Unknown
Launch date (UTC)
1993-06-16 (33 years ago)
Launch vehicle
Unknown
Launch site
Plesetsk Missile And Space Complex (PKMTR)
Object type
Payload
Rocket body
Debris
Shape & HBR
Unknown shape, 0.1 m
Radar Cross Section
Small (<0.1 m²)

Expand to show TLE details & history
Last TLE update: 1 month ago

TLE from 1 month ago
0 COSMOS 2251 DEB
1 37118U 93036BGQ 26034.20519938  .00022037  00000-0  29080-2 0  9998
2 37118  74.0172 340.0735 0002697 344.2912  15.8180 14.79989849663279
Epoch: 2026-02-03T04:55Z
TLE epoch observation values (Epoch: 2026-02-03T04:55:29.226Z)
Latitude
-0.00002°
Longitude
132.81224°
Altitude
630.201 km
Speed
7.544 km/s
True Right ascension
22h 40m 17s
True Declination
0° 00' 00"
Sunlit
Object was in daylight at epoch
Visualization orbit readout
Latitude
Unknown
Longitude
Unknown
Altitude
Unknown
Speed
Unknown
Apparent Right ascension
Unknown
Apparent Declination
Unknown
Sunlit
N/A
Visualization observer readout
Local Sidereal Time
23:01:03
Azimuth
Unknown
Elevation
Unknown
Doppler factor
Unknown
Orbital elements
Apogee altitude
628.823 km
Perigee altitude
625.044 km
Semi-major axis
7,005.07 km
Eccentricity
0.00027
Inclination
74.0172°
RAAN
340.0735°
Arg. of periapsis
344.2912°
True anomaly
15.82643°
Mean anomaly
15.818°
Eccentric anomaly
15.82221°
Mean motion
3.7019 °/min
Orbital period
97.25 mins
BSTAR
0.002908
Loading maneuver chart data...
Computing Atmospheric mass density...

Documentation

Showing up to 5 results
|